Weather History for Meriden, CT

Change the Weather History Date:

Saturday, February 9, 2013

  Actual Average (KHVN) Record (KHVN)
Temperature  
Mean Temperature 24 °F -  
Max Temperature 28 °F 37 °F 28 °F (2014)
Min Temperature 18 °F 24 °F 17 °F (2014)
Degree Days  
Heating Degree Days 42    
Moisture  
Dew Point 12 °F    
Average Humidity 64    
Maximum Humidity 93    
Minimum Humidity 30    
Precipitation  
Precipitation 0.24 in - - ()
Sea Level Pressure  
Sea Level Pressure 29.89 in    
Wind  
Wind Speed 16 mph (NNW)    
Max Wind Speed 26 mph    
Max Gust Speed 43 mph    
Visibility 4 miles    
Events Fog , Snow    
Averages and records for this station are not official NWS values.
T = Trace of Precipitation, MM = Missing Value Source: NWS Daily Summary

Daily Weather History Graph

Daily Weather History Graph

Search for Another Location

Airport:

Trip Planner

Search our weather history database for the weather conditions in past years. The results will help you decide how hot, cold, wet, or windy it might be!

Date:

Astronomy

Feb. 09, 2013 Rise Set
Actual Time 6:53 AM EST 5:17 PM EST
Civil Twilight 6:25 AM EST 5:46 PM EST
Nautical Twilight 5:52 AM EST 6:19 PM EST
Astronomical Twilight 5:20 AM EST 6:51 PM EST
Moon 6:03 AM EST (2/9) 4:57 PM EST (2/9)
Length of Visible Light 11h 21m
Length of Day
10h 23m
Waning Crescent, 0% of the Moon is Illuminated
Feb 9
Waning Crescent
Feb 10
New
Feb 17
First Quarter
Feb 25
Full
Mar 4
Last Quarter

Hourly Weather History & Observations

Time (EST) Temp. Windchill Dew Point Humidity Pressure Visibility Wind Dir Wind Speed Gust Speed Precip Events Conditions
12:26 AM 21.2 °F - 17.6 °F 86% 29.69 in 0.5 mi North - - 0.02 in Fog , Snow Snow
12:35 AM 21.2 °F 8.9 °F 19.4 °F 93% 29.68 in 0.5 mi North 12.7 mph 165.7 mph 0.04 in Fog , Snow Snow
12:53 AM 21.9 °F - 18.0 °F 85% 29.69 in 0.5 mi North - - 0.06 in Fog , Snow Snow
1:53 AM 21.9 °F 9.2 °F 19.0 °F 89% 29.70 in 0.5 mi NNW 13.8 mph 23.0 mph 0.05 in Fog , Snow Snow
2:53 AM 23.0 °F 11.1 °F 19.9 °F 88% 29.71 in 0.5 mi NNW 12.7 mph 21.9 mph 0.08 in Fog , Snow Snow
3:15 AM 23.0 °F 10.1 °F 19.4 °F 86% 29.70 in 0.5 mi NNW 15.0 mph 26.5 mph 0.01 in Fog , Snow Snow
3:46 AM 24.8 °F 12.4 °F 21.2 °F 86% 29.71 in 1.2 mi NNW 15.0 mph 23.0 mph 0.02 in Snow Light Snow
3:53 AM 24.1 °F 12.0 °F 21.0 °F 88% 29.73 in 1.2 mi NNW 13.8 mph 23.0 mph 0.02 in Snow Light Snow
4:27 AM 24.8 °F 12.9 °F 21.2 °F 86% 29.73 in 1.5 mi NW 13.8 mph 23.0 mph 0.00 in Snow Light Snow
4:53 AM 25.0 °F 12.2 °F 21.0 °F 85% 29.74 in 1.5 mi NW 16.1 mph 24.2 mph 0.00 in Snow Light Snow
5:27 AM 24.8 °F 11.5 °F 21.2 °F 86% 29.74 in 0.8 mi NW 17.3 mph 28.8 mph 0.00 in Snow Light Snow
5:53 AM 24.1 °F 11.0 °F 21.0 °F 88% 29.75 in 0.8 mi NW 16.1 mph - 0.01 in Snow Light Snow
6:09 AM 24.8 °F 11.5 °F 21.2 °F 86% 29.75 in 0.8 mi NW 17.3 mph 27.6 mph 0.00 in Snow Light Snow
6:43 AM 23.0 °F 9.6 °F 19.4 °F 86% 29.77 in 1.0 mi NNW 16.1 mph 21.9 mph 0.00 in Snow Light Snow
6:53 AM 23.0 °F 11.1 °F 19.0 °F 85% 29.79 in 1.0 mi NNW 12.7 mph 23.0 mph 0.00 in Snow Light Snow
7:19 AM 23.0 °F 11.7 °F 17.6 °F 80% 29.80 in 1.2 mi NNW 11.5 mph 19.6 mph 0.00 in Snow Light Snow
7:53 AM 21.9 °F 10.4 °F 17.1 °F 82% 29.83 in 1.2 mi NNW 11.5 mph 20.7 mph 0.00 in Snow Light Snow
8:10 AM 23.0 °F 12.4 °F 15.8 °F 74% 29.83 in 2.0 mi NNW 10.4 mph 24.2 mph 0.00 in Snow Light Snow
8:21 AM 21.2 °F 8.9 °F 15.8 °F 80% 29.83 in 1.8 mi NNW 12.7 mph 26.5 mph 0.00 in Snow Light Snow
8:33 AM 21.2 °F 6.4 °F 14.0 °F 74% 29.83 in 3.0 mi NNW 18.4 mph 33.4 mph 0.01 in Snow Light Snow
8:44 AM 23.0 °F 8.3 °F 12.2 °F 63% 29.84 in 8.0 mi NW 19.6 mph 26.5 mph 0.01 in Snow Light Snow
8:53 AM 23.0 °F 8.0 °F 12.0 °F 63% 29.86 in 6.0 mi NW 20.7 mph 29.9 mph 0.01 in Snow Light Snow
9:53 AM 23.0 °F 7.2 °F 10.9 °F 60% 29.87 in 3.0 mi NW 23.0 mph 29.9 mph 0.00 in Snow Light Snow
10:10 AM 23.0 °F 7.6 °F 12.2 °F 63% 29.88 in 1.8 mi NNW 21.9 mph 33.4 mph 0.00 in Snow Light Snow
10:20 AM 24.8 °F 11.5 °F 10.4 °F 54% 29.89 in 3.0 mi NNW 17.3 mph 38.0 mph 0.00 in Snow Light Snow
10:53 AM 24.1 °F 9.0 °F 10.9 °F 57% 29.91 in 4.0 mi NNW 21.9 mph 36.8 mph 0.00 in Snow Light Snow
11:53 AM 25.0 °F 12.2 °F 10.9 °F 55% 29.93 in 5.0 mi NW 16.1 mph 31.1 mph 0.00 in Snow Light Snow
12:25 PM 26.6 °F 13.4 °F 8.6 °F 47% 29.93 in 2.5 mi NNW 18.4 mph 36.8 mph 0.00 in Snow Light Snow
12:32 PM 24.8 °F 10.3 °F 8.6 °F 50% 29.93 in 6.0 mi NNW 20.7 mph 31.1 mph 0.00 in Snow Light Snow
12:53 PM 25.0 °F 9.5 °F 7.0 °F 46% 29.93 in 5.0 mi NNW 24.2 mph 38.0 mph 0.00 in Snow Light Snow
1:37 PM 26.6 °F 11.4 °F 5.0 °F 40% 29.93 in 2.0 mi NNW 25.3 mph 42.6 mph 0.00 in Snow Light Snow
1:49 PM 26.6 °F 14.7 °F 3.2 °F 37% 29.93 in 6.0 mi NNW 15.0 mph 29.9 mph 0.01 in Snow Light Snow
1:53 PM 26.1 °F 13.6 °F 3.9 °F 39% 29.94 in 7.0 mi NNW 16.1 mph 31.1 mph 0.01 in Snow Light Snow
2:27 PM 28.4 °F 13.5 °F 3.2 °F 34% 29.95 in 2.0 mi NNW 26.5 mph 35.7 mph 0.00 in Snow Light Snow
2:53 PM 27.0 °F 12.2 °F 3.9 °F 37% 29.99 in 3.0 mi NW 24.2 mph 36.8 mph 0.00 in Snow Light Snow
3:53 PM 28.0 °F 14.6 °F -0.0 °F 30% 30.03 in 9.0 mi NNW 20.7 mph 28.8 mph 0.00 in   Clear
4:53 PM 26.1 °F 12.7 °F 1.0 °F 34% 30.06 in 7.0 mi NNW 18.4 mph 34.5 mph 0.00 in   Clear
5:53 PM 25.0 °F 13.6 °F -0.9 °F 33% 30.12 in 10.0 mi NNW 12.7 mph 25.3 mph 0.00 in   Clear
6:53 PM 23.0 °F 9.2 °F 5.0 °F 46% 30.16 in 9.0 mi NNW 17.3 mph 29.9 mph N/A   Clear
7:53 PM 21.9 °F 7.3 °F 5.0 °F 48% 30.18 in 10.0 mi NW 18.4 mph 27.6 mph N/A   Clear
8:53 PM 21.0 °F 7.1 °F 3.9 °F 48% 30.20 in 10.0 mi NNW 16.1 mph 25.3 mph N/A   Clear
9:53 PM 21.0 °F 8.6 °F -0.0 °F 40% 30.23 in 10.0 mi NNW 12.7 mph - N/A   Clear
10:53 PM 19.9 °F 8.6 °F -0.9 °F 40% 30.27 in 10.0 mi NNW 10.4 mph 20.7 mph N/A   Clear
11:53 PM 18.0 °F 6.9 °F -2.0 °F 41% 30.29 in 10.0 mi NW 9.2 mph 18.4 mph N/A   Clear